Welcome to mirrors.dotsrc.org

All our mirrors of open source software are available via http, https and ftp. More information about our mirrors including statistics and contact information is available on our mirror info pages.

For information about dotsrc.org and our other services please go to our website.

Index of /pub/ubuntu/pool/universe/m/

File Name  ↓ File Size  ↓ Date  ↓ 
Parent directory/--
moblin-menus/-2009-12-05 23:04:59
mova/-2011-09-15 14:01:50
movixmaker-2/-2011-09-20 05:40:03
msnlib/-2012-01-09 11:04:38
multipartposthandler/-2012-01-09 11:04:38
modello-maven-plugin1.4/-2012-01-09 16:34:37
magictouch/-2012-02-05 22:33:46
mttroff/-2012-02-18 18:33:48
multitet/-2012-02-18 19:03:35
mboxcheck/-2012-05-01 11:04:06
mysql-mmm/-2012-05-01 11:35:49
munin-plugins-openstack/-2012-07-02 16:04:29
mythbuntu-diskless/-2012-08-02 15:04:53
mythnettv/-2014-01-27 17:04:10
memphis/-2014-02-19 10:08:51
mic2/-2014-02-19 10:28:43
maas-test/-2014-04-10 18:42:53
mate-dialogs/-2014-05-21 12:37:20
mythbuntu-lightdm-theme/-2015-04-26 12:10:33
monogame/-2015-04-27 15:55:28
mirror.js/-2015-04-27 15:55:30
mana/-2015-04-27 15:55:35
memoise/-2015-04-28 17:59:06
media-ctl/-2015-04-28 17:59:06
mate-doc-utils/-2015-04-28 17:59:08
maliit-plugins/-2015-04-28 17:59:10
mediascanner/-2015-04-28 18:03:15
mythbuntu-gdm-theme/-2015-04-30 13:19:47
musiclibrarian/-2015-04-30 13:19:47
mingw32-runtime/-2015-04-30 13:19:48
mozart-stdlib/-2015-04-30 13:19:48
minirok/-2015-04-30 13:19:48
mffm-timecode/-2015-04-30 13:19:48
mgm/-2015-04-30 13:19:48
moodle-debian-edu-theme/-2015-04-30 13:19:48
mailplate/-2015-04-30 13:19:49
malbolge/-2015-04-30 13:19:49
macchanger-gtk/-2015-04-30 13:19:49
metainit/-2015-04-30 13:21:00
mnemosyne-blog/-2015-06-15 05:23:44
modello1.4/-2015-07-13 18:16:46
maven-compiler-plugin-2.5/-2015-07-26 06:14:26
mopidy-youtube/-2015-08-09 06:18:57
mopidy-podcast-gpodder/-2015-10-24 10:30:13
maven-ant-tasks/-2015-11-17 05:44:59
mango-lassi/-2015-12-04 10:31:46
mod-authnz-persona/-2015-12-04 11:26:12
msgpack/-2015-12-04 11:56:13
musique/-2015-12-04 11:56:26
mangonel/-2015-12-05 01:05:27
mariadb-client-lgpl/-2015-12-05 01:05:28
mmsd/-2015-12-05 01:47:14
mnemonicode/-2015-12-05 01:47:15
mooproxy/-2015-12-05 01:47:16
music-hub/-2015-12-05 01:47:30
mi2svg/-2015-12-05 08:00:26
maptransfer/-2015-12-13 23:49:22
myghty/-2015-12-13 23:49:26
mate-accountsdialog/-2015-12-28 14:14:27
mailping/-2016-01-17 16:39:09
mmtk/-2016-02-11 19:00:01
modestmaps-js/-2016-05-06 23:24:37
minetest-mod-mobf/-2016-06-12 23:34:43
mcollective-plugins/-2016-07-04 14:00:17
mrtg-ping-probe/-2016-08-02 00:16:08
mauve/-2016-10-31 12:14:49
myghtyutils/-2016-10-31 12:45:41
micro-proxy/-2016-10-31 12:45:42
makejvf/-2016-10-31 12:45:43
minit/-2016-10-31 13:22:45
mythnettv-gui/-2016-11-01 01:06:56
mtpfs/-2016-11-01 01:06:58
multiget/-2016-11-01 01:06:58
mrtg-rrd/-2016-11-01 01:06:58
mpage/-2016-11-01 01:07:12
mozart/-2016-11-01 01:07:15
monkeytail/-2016-11-01 01:07:21
mixal/-2016-11-01 01:07:23
memaker/-2016-11-01 01:07:27
mce-dev/-2016-11-01 01:07:30
manpages-es/-2016-11-01 01:07:32
mach/-2016-11-01 01:07:37
mod-spamhaus/-2016-11-01 01:14:18
mythbuntu-lirc-generator/-2016-11-01 08:06:33
mythbuntu-log-grabber/-2016-11-01 08:06:33
mysql-proxy/-2016-11-01 08:06:34
murrine-themes/-2016-11-01 08:06:35
mr/-2016-11-01 08:06:37
msn-pecan/-2016-11-01 08:06:37
movabletype-opensource/-2016-11-01 08:06:38
mp/-2016-11-01 08:06:38
monodevelop-debugger-gdb/-2016-11-01 08:06:43
monobristol/-2016-11-01 08:06:43
monkey-bubble/-2016-11-01 08:06:43
mingw32-binutils/-2016-11-01 08:06:46
mirrorkit/-2016-11-01 08:06:46
mingw32/-2016-11-01 08:06:46
micro-inetd/-2016-11-01 08:06:46
md5deep/-2016-11-01 08:06:48
mathwar/-2016-11-01 08:06:49
manpages-fr/-2016-11-01 08:06:50
magicor/-2016-11-01 08:06:51
mysql-connector-net/-2016-11-01 08:11:38
myodbc/-2016-11-01 08:11:38
mono-addins/-2016-11-01 08:11:48
mono-uia/-2016-11-01 08:11:48
module-build-cipux/-2016-11-01 08:11:49
matrixssl/-2016-11-01 08:11:53
maven-docck-plugin/-2016-11-01 08:11:53
maven-embedder/-2016-11-01 08:11:53
maven-ear-plugin/-2016-11-01 08:11:53
mochikit/-2016-11-01 08:12:14
mythbuntu-control-centre/-2016-11-01 13:09:36
mythbuntu-default-settings/-2016-11-01 13:09:36
muddleftpd/-2016-11-01 13:09:39
mago/-2016-11-01 13:09:53
mistelix/-2016-11-02 07:12:28
mono-reference-assemblies/-2016-11-02 12:41:51
mozplugger/-2016-11-02 12:49:20
minetest-mod-animalmaterials/-2016-11-02 22:22:03
mozjs17/-2016-11-03 19:02:10
malai/-2016-12-02 18:17:26
mysql-sandbox/-2017-01-07 05:24:13
mytop/-2017-01-11 18:25:47
moksha.hub/-2017-01-13 05:13:23
mylvmbackup/-2017-01-13 23:23:34
mendexk/-2017-02-20 12:18:59
mozvoikko/-2017-02-24 06:18:39
mx44/-2017-02-26 12:16:05
mythbuntu-bare/-2017-04-01 06:15:55
migration-assistant/-2017-04-06 06:43:52
maximus/-2017-04-06 06:43:53
mod-authn-webid/-2017-04-06 06:44:16
mensis/-2017-06-16 00:17:26
maven-filtering/-2017-07-18 23:38:57
maven-file-management/-2017-07-19 23:13:31
maven-verifier/-2017-07-20 18:00:08
maven-ejb-plugin/-2017-07-27 11:18:24
maven-shared-incremental/-2017-07-28 12:14:10
maven-antrun-extended-plugin/-2017-07-28 23:23:45
munge-maven-plugin/-2017-08-01 05:29:22
mailman-api/-2017-08-24 05:13:37
maven-source-plugin/-2017-08-26 06:17:23
maven-shared-jar/-2017-09-07 18:15:32
msp430-libc/-2017-09-09 12:28:27
maven-deploy-plugin/-2017-09-15 18:19:27
maven-assembly-plugin/-2017-09-18 12:14:04
maven-antrun-plugin/-2017-09-21 18:17:14
maven-reporting-impl/-2017-09-22 00:19:27
mockobjects/-2017-11-02 23:14:16
monajat/-2017-11-03 01:23:58
mac-fdisk/-2017-11-10 08:41:07
moxie.js/-2017-12-31 05:56:43
museek+/-2018-01-19 09:22:23
msrtool/-2018-01-19 09:22:24
mopd/-2018-01-19 09:22:26
monav/-2018-01-19 09:22:27
medit/-2018-01-19 09:22:33
me-tv/-2018-01-19 09:22:34
mailcrypt/-2018-01-19 09:22:42
minc/-2018-01-19 09:24:17
mythbuntu-live-autostart/-2018-01-22 08:45:15
mutt-kz/-2018-01-22 08:45:20
mumble-django/-2018-01-22 08:45:22
mtasc/-2018-01-22 08:45:23
mstflint4/-2018-01-22 08:45:23
mplayerthumbs/-2018-01-22 08:45:24
mplayer2/-2018-01-22 08:45:24
mp3splt-gtk/-2018-01-22 08:45:27
mozilla-password-editor/-2018-01-22 08:45:27
morituri/-2018-01-22 08:45:28
moodbar/-2018-01-22 08:45:28
moodle/-2018-01-22 08:45:28
monodevelop-database/-2018-01-22 08:45:29
monotone-viz/-2018-01-22 08:45:29
monodevelop/-2018-01-22 08:45:29
miro/-2018-01-22 08:45:32
minbar/-2018-01-22 08:45:34
mediawiki-extensions/-2018-01-22 08:45:38
mdpress/-2018-01-22 08:45:38
maven2/-2018-01-22 08:45:40
mate-netspeed/-2018-01-22 08:45:41
mysql-5.6/-2018-01-22 08:48:08
mule/-2018-01-22 08:48:11
mmpong/-2018-01-22 08:48:17
mathcomp/-2018-01-22 08:48:21
maven-stapler-plugin/-2018-01-22 08:48:21
maven-project-info-reports-plugin/-2018-01-22 08:48:21
maven-hpi-plugin/-2018-01-22 08:48:21
mummy/-2018-01-22 08:48:38
mod-mono/-2018-01-22 08:50:25
midgard2-core/-2018-01-22 08:51:40
m17n-db/-2018-01-22 18:17:38
mythbuntu-common/-2018-01-23 08:50:04
monotone/-2018-01-23 08:50:26
mmass/-2018-01-23 08:50:30
mkdocs-bootswatch/-2018-01-23 08:50:32
mdbus/-2018-01-23 08:50:46
mcmcpack/-2018-01-23 08:50:47
mandelbulber/-2018-01-23 08:50:59
maitreya/-2018-01-23 08:51:02
ming/-2018-01-23 08:56:53
mgrs/-2018-01-23 08:57:57
mx/-2018-01-23 09:11:41
memleax/-2018-01-31 09:20:00
manpages-tr/-2018-02-09 17:31:31
measurement-kit/-2018-02-10 00:21:26
mkelfimage/-2018-04-05 08:04:19
mumudvb/-2018-04-05 08:04:55
mxallowd/-2018-04-05 09:25:39
mythtvfs-fuse/-2018-04-05 09:25:39
mlbviewer/-2018-04-07 06:15:28
mythexport/-2018-04-20 01:58:34
myspell-hr/-2018-04-20 07:58:57
module-assistant/-2018-05-05 00:07:32
messaging-app/-2018-06-22 15:12:53
mock/-2018-06-22 15:12:53
mediaplayer-app/-2018-06-22 15:12:53
musixtex/-2018-06-22 15:12:53
matita/-2018-06-22 15:12:53
memcachedb/-2018-06-22 15:12:53
m-tx/-2018-06-22 15:12:54
mtp/-2018-06-22 15:13:01
mp4v2/-2018-06-22 15:13:02
maven-script-interpreter/-2018-06-22 15:13:02
maven-invoker-plugin/-2018-06-22 15:13:02
maven-invoker/-2018-06-22 15:13:02
myrepos/-2018-07-26 11:18:22
mrrescue/-2018-08-05 11:13:24
modulator/-2018-09-19 17:58:19
magicmaze/-2018-11-09 11:34:08
mason/-2018-11-09 11:34:10
mb2md/-2018-11-09 11:34:18
mokutil/-2018-11-22 00:23:45
metainf-services/-2018-12-28 23:19:09
mpj/-2019-01-13 17:18:49
minify-maven-plugin/-2019-01-13 23:18:34
mp4parser/-2019-01-23 19:12:09
mac-widgets/-2019-01-30 05:18:20
meta-gnustep/-2019-02-07 08:08:34
mariadb-10.0/-2019-02-13 06:20:42
maven-enforcer/-2019-02-26 18:18:23
maven-plugin-tools/-2019-02-26 18:18:23
morfologik-stemming/-2019-02-28 07:23:37
maven-parent/-2019-03-09 07:28:18
maven-clean-plugin/-2019-03-09 07:28:19
maven-doxia-tools/-2019-03-09 07:28:19
maven-shade-plugin/-2019-03-09 07:33:19
maven-resources-plugin/-2019-03-09 07:33:19
maven-plugin-testing/-2019-03-09 07:33:20
maven-shared-utils/-2019-03-09 07:38:19
mavibot/-2019-03-09 08:13:19
msv/-2019-03-09 08:18:18
mat/-2019-04-05 00:41:07
mina/-2019-04-21 13:10:38
mariadb-5.5/-2019-05-25 00:13:22
modello-maven-plugin/-2019-07-09 13:38:41
molly-guard/-2019-07-09 23:39:34
modernize/-2019-07-17 00:16:45
mrename/-2019-07-22 11:18:29
mmllib/-2019-07-23 23:29:01
mimerender/-2019-07-27 05:29:17
mini-dinstall/-2019-08-03 21:33:17
manpages-pl/-2019-08-04 17:24:19
mh-e/-2019-10-02 00:19:17
mercurial-crecord/-2019-10-25 22:50:45
mp3burn/-2019-10-25 22:50:53
multex-base/-2019-10-25 22:50:53
maven-replacer-plugin/-2019-10-26 01:54:47
mueller/-2019-12-22 00:15:51
mandrill/-2020-01-11 19:08:50
mocker/-2020-01-11 19:08:50
moosic/-2020-01-11 19:08:53
model-builder/-2020-01-14 18:40:00
mysql-utilities/-2020-01-15 00:16:17
mopidy-gmusic/-2020-01-23 00:19:31
mako/-2020-02-23 06:15:51
mercurial-server/-2020-03-30 18:34:43
mimms/-2020-03-31 18:34:32
mpris-remote/-2020-03-31 18:34:32
mailto/-2020-04-02 18:09:10
mbw/-2020-04-02 18:09:15
mathtex/-2020-04-02 18:09:15
ministat/-2020-04-02 18:09:16
midicsv/-2020-04-02 18:09:17
mpt-status/-2020-04-02 18:09:18
mixer.app/-2020-04-02 18:09:20
mmv/-2020-04-02 18:09:20
mppenc/-2020-04-02 18:09:20
mutextrace/-2020-04-02 18:23:52
multitee/-2020-04-02 18:23:52
minizip/-2020-04-02 18:23:54
mancala/-2020-04-03 03:53:49
multiwatch/-2020-04-03 04:08:43
mimelib1/-2020-04-03 04:58:41
madwimax/-2020-04-03 06:13:34
masqmail/-2020-04-03 06:13:46
mplinuxman/-2020-04-03 06:13:46
mah-jong/-2020-04-03 06:13:55
maas-enlist/-2020-04-03 09:44:18
makexvpics/-2020-04-03 09:44:21
members/-2020-04-03 10:13:52
memstat/-2020-04-03 10:13:54
mergelog/-2020-04-03 10:13:57
mffm-fftw/-2020-04-03 10:14:09
minisat+/-2020-04-03 10:14:27
minisat2/-2020-04-03 10:14:28
minimodem/-2020-04-03 10:14:29
minisapserver/-2020-04-03 10:28:33
morsegen/-2020-04-03 10:28:44
morse2ascii/-2020-04-03 10:28:45
moblin-gtk-engine/-2020-04-03 10:28:50
mp3wrap/-2020-04-03 10:28:51
mpegdemux/-2020-04-03 10:28:52
mpgtx/-2020-04-03 10:28:53
msgpuck/-2020-04-03 10:43:36
mpeg2dec/-2020-04-03 10:43:38
msi-keyboard/-2020-04-03 10:58:28
mtbl/-2020-04-03 10:58:30
musescore-sftools/-2020-04-03 10:58:33
myspell/-2020-04-03 10:58:34
mswatch/-2020-04-03 10:58:37
mysecureshell/-2020-04-03 11:13:39
mgdiff/-2020-04-03 14:54:19
mz/-2020-04-04 14:23:25
mpm-itk/-2020-04-04 15:08:42
mod-proxy-msrpc/-2020-04-04 15:08:44
meterbridge/-2020-04-04 16:03:27
maliit-inputcontext-gtk/-2020-04-05 05:49:05
mini18n/-2020-04-05 07:33:32
mountpy/-2020-04-05 07:33:33
mod-mime-xattr/-2020-04-05 07:33:33
most/-2020-04-05 07:33:34
memchan/-2020-04-05 07:33:34
mactelnet/-2020-04-05 07:33:34
mm/-2020-04-05 07:33:35
ministocks/-2020-04-05 11:43:37
mod-authz-securepass/-2020-04-06 01:28:23
mod-dnssd/-2020-04-06 01:43:22
mod-gnutls/-2020-04-06 01:43:26
mazeofgalious/-2020-04-06 03:38:28
mousetrap/-2020-04-06 03:53:23
minbif/-2020-04-07 11:08:19
mercurial-buildpackage/-2020-04-13 14:38:24
miceamaze/-2020-04-13 16:53:32
meta-ocaml/-2020-04-27 21:14:13
metacity-themes/-2020-04-27 21:14:21
manpages-fr-extra/-2020-04-27 21:15:08
mkdocs-nature/-2020-04-27 21:15:27
mcollective/-2020-04-27 21:15:28
multistrap/-2020-04-27 21:15:39
mp3cd/-2020-04-27 21:15:39
maven-remote-resources-plugin/-2020-04-28 00:26:21
minetest-mod-xdecor/-2020-04-28 00:26:21
munin-libvirt-plugins/-2020-04-28 00:26:24
maloc/-2020-04-28 01:34:51
mcron/-2020-04-28 01:43:45
mudita24/-2020-04-28 02:21:27
mbpoll/-2020-04-28 11:21:46
mftrace/-2020-04-29 00:13:49
mailtextbody/-2020-05-02 23:33:23
miwm/-2020-05-17 06:14:40
mpg123-el/-2020-05-21 00:14:12
mailagent/-2020-05-22 03:28:18
mingetty/-2020-05-25 06:13:24
mbpfan/-2020-05-27 06:14:16
mmtf-python/-2020-06-19 00:14:21
matchbox/-2020-06-23 05:28:50
matchbox-common/-2020-06-23 05:28:53
matchbox-themes-extra/-2020-06-23 05:28:53
mcu8051ide/-2020-07-08 23:24:01
mtd-utils/-2020-07-10 21:51:19
mrxvt/-2020-07-10 21:51:19
mrtparse/-2020-07-10 21:51:19
mockldap/-2020-07-10 21:51:20
molds/-2020-07-10 21:51:20
mirmon/-2020-07-10 21:51:20
mixmaster/-2020-07-10 21:51:20
mon/-2020-07-10 21:51:20
monkeystudio/-2020-07-10 21:51:20
mon-contrib/-2020-07-10 21:51:20
metaphlan2-data/-2020-07-10 21:51:21
mediatomb/-2020-07-10 21:51:21
matchit/-2020-07-10 21:51:22
mcrl2/-2020-07-10 21:51:22
matanza/-2020-07-10 21:51:22
mate-icon-theme-faenza/-2020-07-10 21:51:22
mathpartir/-2020-07-10 21:51:22
mcelog/-2020-07-10 21:51:22
mcp-plugins/-2020-07-10 21:51:22
mail-notification/-2020-07-10 21:51:23
maildir-filter/-2020-07-10 21:51:23
m2ext/-2020-07-10 21:51:23
mysql-connector-java/-2020-07-10 21:51:43
mvel/-2020-07-10 21:51:43
mozjs/-2020-07-10 21:51:44
mozjs38/-2020-07-10 21:51:44
media-hub/-2020-07-10 21:51:44
motif/-2020-07-10 21:51:44
mediascanner2/-2020-07-10 21:51:44
mozjs24/-2020-07-10 21:51:44
maven-war-plugin/-2020-07-10 21:51:45
maven-shared-io/-2020-07-10 21:51:45
maven-artifact-transfer/-2020-07-10 21:51:45
maven-bundle-plugin/-2020-07-10 21:51:45
maven-dependency-plugin/-2020-07-10 21:51:45
maven2-core/-2020-07-10 21:51:45
maven-repository-builder/-2020-07-10 21:51:45
maven-indexer/-2020-07-10 21:51:45
maven-processor-plugin/-2020-07-10 21:51:45
mathjax-docs/-2020-07-10 21:51:48
mojarra/-2020-07-10 21:51:48
m2vrequantiser/-2020-07-12 00:15:10
minetest-mod-animals/-2020-07-13 08:50:02
mecab-naist-jdic/-2020-07-13 08:50:02
mpi-testsuite/-2020-07-13 08:50:02
minetest-mod-advspawning/-2020-07-13 08:50:02
mecab-jumandic/-2020-07-13 08:50:02
mediawiki-math/-2020-07-13 08:50:02
minetest-mod-mobf-core/-2020-07-13 08:50:02
metro-policy/-2020-07-13 08:50:18
mariadb-connector-c/-2020-07-13 08:50:18
mongo-java-driver/-2020-07-13 08:50:18
migrate/-2020-07-14 14:43:57
mwc/-2020-07-14 14:44:05
musica/-2020-07-14 14:44:05
mlbstreamer/-2020-07-14 14:44:06
moksha.common/-2020-07-14 14:44:06
monkeysign/-2020-07-14 14:44:06
modestmaps-py/-2020-07-14 14:44:06
mupen64plus/-2020-07-14 14:44:06
mipp/-2020-07-14 14:44:06
mosquitto-auth-plugin/-2020-07-14 14:44:06
minetest-mod-torches/-2020-07-14 14:44:06
mecab-ipadic/-2020-07-14 14:44:07
manuel/-2020-07-14 14:44:07
mdp/-2020-07-14 14:44:07
megadown/-2020-07-14 14:44:07
mapbox-vector-tile/-2020-07-14 14:44:07
mono-basic/-2020-07-14 14:44:22
modello/-2020-07-14 14:44:22
maven-jar-plugin/-2020-07-14 14:44:22
mingw-ocaml/-2020-07-14 14:44:48
markdown-toc-el/-2020-07-14 14:44:51
magithub/-2020-07-14 14:44:51
mutrace/-2020-07-26 12:14:56
mmorph/-2020-07-27 18:23:45
mpc123/-2020-07-28 12:21:37
matlab2tikz/-2020-08-02 23:18:48
mapbox-variant/-2020-08-03 23:18:52
mercantile/-2020-08-06 15:43:45
mapbox-geometry/-2020-08-07 00:13:53
mcpdisp/-2020-08-11 16:38:45
mencal/-2020-08-15 12:14:17
mate-hud/-2020-08-24 12:59:36
mathjax/-2020-08-29 12:14:22
mongo-tools/-2020-09-14 12:15:16
meliae/-2020-10-10 00:14:11
mimefilter/-2020-10-28 23:30:03
mkdocs-bootstrap/-2020-10-28 23:38:55
mkchromecast/-2020-10-28 23:38:56
mqtt-client/-2020-10-28 23:39:06
mp3report/-2020-10-28 23:39:06
mpl-scatter-density/-2020-10-28 23:43:50
morfologik-stemming2/-2020-10-29 07:37:04
mp3guessenc/-2020-10-29 09:48:44
m4api/-2020-10-29 17:10:02
microsocks/-2020-10-29 17:10:04
mojoshader/-2020-10-30 00:14:11
morfessor/-2020-10-31 18:15:11
mkgmapgui/-2020-11-02 00:21:09
misery/-2020-11-02 13:43:40
mediathekview/-2020-11-03 22:33:39
mtpaint/-2020-11-06 06:04:11
mediaelement/-2020-11-11 03:03:44
meta-unison/-2020-11-14 01:58:37
message-templ/-2020-11-18 05:28:46
mobile-tweaks/-2020-11-18 12:14:47
mhap/-2020-11-26 05:23:53
munkres/-2020-11-30 00:16:45
metastudent-data-2/-2020-11-30 05:24:18
melting/-2020-11-30 05:24:19
mps-youtube/-2020-12-04 09:33:51
mecat2/-2020-12-07 12:15:14
mutt-alias-el/-2020-12-08 23:34:46
muse-el/-2020-12-08 23:34:46
muttrc-mode-el/-2020-12-08 23:34:50
menu-cache/-2020-12-09 11:54:48
mediawiki-extension-youtube/-2020-12-12 00:18:06
mediawiki-skin-greystuff/-2020-12-12 00:18:06
magicfilter/-2020-12-21 06:14:41
massif-visualizer/-2020-12-23 12:04:37
mopidy-mpd/-2020-12-26 23:45:48
multiboot/-2020-12-26 23:45:48
mootools/-2020-12-27 05:25:03
makedev/-2020-12-27 23:35:46
markdown/-2020-12-28 17:50:19
mono-tools/-2020-12-28 17:50:24
maven-archiver/-2020-12-28 23:46:54
myspell.pt/-2020-12-28 23:47:00
maven-reporting-api/-2020-12-29 05:35:52
maven-install-plugin/-2020-12-29 05:35:55
maven-dependency-tree/-2020-12-29 05:49:33
maven-mapping/-2020-12-29 11:30:10
mediaconch/-2020-12-29 23:34:23
mypaint-brushes/-2020-12-29 23:34:23
mysql-connector-python/-2020-12-29 23:34:23
mididings/-2020-12-29 23:34:23
mpdas/-2020-12-29 23:34:23
mp3check/-2020-12-29 23:34:23
mboxgrep/-2020-12-29 23:34:23
makejail/-2020-12-29 23:34:23
mairix/-2020-12-29 23:34:23
mobyle-tutorials/-2020-12-29 23:34:23
mssh/-2020-12-29 23:34:23
mdm/-2020-12-29 23:34:23
matchbox-desktop/-2020-12-29 23:34:23
mccs/-2020-12-29 23:34:23
mlterm/-2020-12-29 23:34:23
mailsync/-2020-12-29 23:34:23
mpdcron/-2020-12-29 23:34:23
moria/-2020-12-29 23:34:23
morris/-2020-12-29 23:34:23
mobyle/-2020-12-29 23:34:23
multitime/-2020-12-29 23:34:23
mklibs/-2020-12-29 23:34:23
musicbrainzngs/-2020-12-29 23:34:23
maybe/-2020-12-29 23:34:23
mbtserver/-2020-12-29 23:34:23
mxt-app/-2020-12-29 23:34:23
munin-c/-2020-12-29 23:34:23
mongrel2/-2020-12-29 23:34:23
mkcue/-2020-12-29 23:34:23
moon-buggy/-2020-12-29 23:34:23
more-itertools/-2020-12-29 23:34:23
maq/-2020-12-29 23:34:23
mupen64plus-rsp-hle/-2020-12-29 23:34:23
mupen64plus-video-glide64/-2020-12-29 23:34:23
metacam/-2020-12-29 23:34:23
mseed2sac/-2020-12-29 23:34:23
mpdscribble/-2020-12-29 23:34:23
mldemos/-2020-12-29 23:34:23
manpages-de/-2020-12-29 23:34:23
metar/-2020-12-29 23:34:23
mupen64plus-video-rice/-2020-12-29 23:34:23
maqview/-2020-12-29 23:34:23
myhdl/-2020-12-29 23:34:23
metaconfig/-2020-12-29 23:34:23
moap/-2020-12-29 23:34:23
mupen64plus-rsp-z64/-2020-12-29 23:34:23
mopidy-alsamixer/-2020-12-29 23:34:23
makedepf90/-2020-12-29 23:34:23
microdc2/-2020-12-29 23:34:23
montage-wrapper/-2020-12-29 23:34:23
mapnik-vector-tile/-2020-12-29 23:34:23
matchbox-panel/-2020-12-29 23:34:23
mupen64plus-qt/-2020-12-29 23:34:23
mpg321/-2020-12-29 23:34:23
myrescue/-2020-12-29 23:34:23
miredo/-2020-12-29 23:34:23
mdns-scan/-2020-12-29 23:34:23
mirrormagic/-2020-12-29 23:34:23
mustang/-2020-12-29 23:34:23
mate-equake-applet/-2020-12-29 23:34:23
mysqmail/-2020-12-29 23:34:23
multimon/-2020-12-29 23:34:23
mriconvert/-2020-12-29 23:34:23
mapcode/-2020-12-29 23:34:23
martian/-2020-12-29 23:34:23
maildrop/-2020-12-29 23:34:23
mopidy-dleyna/-2020-12-29 23:34:23
mupen64plus-ui-console/-2020-12-29 23:34:23
mlmmj/-2020-12-29 23:34:23
mokomaze/-2020-12-29 23:34:23
matchbox-panel-manager/-2020-12-29 23:34:23
modem-manager-gui/-2020-12-29 23:34:23
multimail/-2020-12-29 23:34:23
mupen64plus-audio-sdl/-2020-12-29 23:34:23
mdp-src/-2020-12-29 23:34:23
mhwaveedit/-2020-12-29 23:34:23
mobyle-programs/-2020-12-29 23:34:23
magic-wormhole-mailbox-server/-2020-12-29 23:34:23
multicat/-2020-12-29 23:34:23
mg/-2020-12-29 23:34:23
mopidy-internetarchive/-2020-12-29 23:34:23
maria/-2020-12-29 23:34:23
morse-simulator/-2020-12-29 23:34:23
mupen64plus-video-glide64mk2/-2020-12-29 23:34:23
memtool/-2020-12-29 23:34:23
mrtrix/-2020-12-29 23:34:23
mdf2iso/-2020-12-29 23:34:23
magic-wormhole-transit-relay/-2020-12-29 23:34:23
mgp/-2020-12-29 23:34:23
monster-masher/-2020-12-29 23:34:23
mopidy-soundcloud/-2020-12-29 23:34:23
mapnik-reference/-2020-12-29 23:34:23
menu/-2020-12-29 23:34:23
mate-menu/-2020-12-29 23:34:23
missidentify/-2020-12-29 23:34:23
mailcheck/-2020-12-29 23:34:23
mupen64plus-video-arachnoid/-2020-12-29 23:34:23
mailfront/-2020-12-29 23:34:23
marionnet/-2020-12-29 23:34:23
moc/-2020-12-29 23:34:23
motion/-2020-12-29 23:34:23
mopidy-mpris/-2020-12-29 23:34:23
mopidy-podcast-itunes/-2020-12-29 23:34:23
midori/-2020-12-29 23:34:23
mudlet/-2020-12-29 23:34:23
mopidy-local-sqlite/-2020-12-29 23:34:23
mle/-2020-12-29 23:34:23
macfanctld/-2020-12-29 23:34:23
mpqc3/-2020-12-29 23:34:23
mwic/-2020-12-29 23:34:23
makehuman/-2020-12-29 23:34:23
maude/-2020-12-29 23:34:23
mrtgutils/-2020-12-29 23:34:23
mutatormath/-2020-12-29 23:34:23
metastudent/-2020-12-29 23:34:23
mupen64plus-input-sdl/-2020-12-29 23:34:23
makefs/-2020-12-29 23:34:23
mod-gearman/-2020-12-29 23:34:23
matroxset/-2020-12-29 23:34:23
mopidy-scrobbler/-2020-12-29 23:34:23
minetestmapper/-2020-12-29 23:34:23
microcom/-2020-12-29 23:34:23
mysqltcl/-2020-12-29 23:34:23
midish/-2020-12-29 23:34:23
macchanger/-2020-12-29 23:34:23
mikmod/-2020-12-29 23:34:23
mcomix/-2020-12-29 23:34:23
mscgen/-2020-12-29 23:34:23
makebootfat/-2020-12-29 23:34:23
maim/-2020-12-29 23:34:23
mp4h/-2020-12-29 23:34:23
muon/-2020-12-29 23:34:23
mini-buildd/-2020-12-29 23:34:23
mlv-smile/-2020-12-29 23:34:23
monsterz/-2020-12-29 23:34:23
mspdebug/-2020-12-29 23:34:23
mygpoclient/-2020-12-29 23:34:23
mesa-demos/-2020-12-29 23:34:23
maas/-2020-12-29 23:34:23
mopidy-podcast/-2020-12-29 23:34:23
mt-st/-2020-12-29 23:34:23
mgen/-2020-12-29 23:34:23
mopidy-dirble/-2020-12-29 23:34:23
mustang-plug/-2020-12-29 23:34:23
muscle/-2020-12-29 23:34:23
moserial/-2020-12-29 23:34:23
mozilla-devscripts/-2020-12-29 23:34:23
microbegps/-2020-12-29 23:34:23
mangler/-2020-12-29 23:34:25
mpqc/-2020-12-29 23:34:26
muroard/-2020-12-29 23:34:30
mrtdreader/-2020-12-29 23:34:30
muparser/-2020-12-29 23:34:30
mysql-connector-c++/-2020-12-29 23:34:30
mopac7/-2020-12-29 23:34:31
mmdb/-2020-12-29 23:34:31
minpack/-2020-12-29 23:34:31
movit/-2020-12-29 23:34:31
maxflow/-2020-12-29 23:34:31
mercator/-2020-12-29 23:34:31
mbt/-2020-12-29 23:34:31
mrmpi/-2020-12-29 23:34:31
mapbox-wagyu/-2020-12-29 23:34:31
modglue/-2020-12-29 23:34:31
maven-compiler-plugin/-2020-12-29 23:34:31
mockito/-2020-12-29 23:34:31
mkl-dnn/-2020-12-29 23:34:31
minicoredumper/-2020-12-29 23:34:31
meep-lam4/-2020-12-29 23:34:31
mcpp/-2020-12-29 23:34:31
metrohash/-2020-12-29 23:34:31
m17n-im-config/-2020-12-29 23:34:31
miaviewit/-2020-12-29 23:34:31
meep-mpich2/-2020-12-29 23:34:31
minidjvu/-2020-12-29 23:34:31
maven-dependency-analyzer/-2020-12-29 23:34:31
mjpegtools/-2020-12-29 23:34:32
mod-wsgi/-2020-12-29 23:34:39
mimedefang/-2020-12-29 23:34:43
mpfit/-2020-12-29 23:34:45
markdown-mode/-2020-12-29 23:34:47
meson-mode/-2020-12-29 23:34:47
magit-popup/-2020-12-29 23:34:47
maradns/-2020-12-29 23:34:48
mclibs/-2020-12-29 23:34:50
mp3gain/-2020-12-31 06:15:01
mocker-el/-2020-12-31 17:44:48
mmake/-2020-12-31 23:35:37
minlog/-2021-01-01 05:24:51
mathpiper/-2021-01-02 00:22:01
magyarispell/-2021-01-02 00:22:54
mugshot/-2021-01-02 06:13:22
mono-zeroconf/-2021-01-02 06:13:23
manderlbot/-2021-01-02 06:13:23
myspell-el-gr/-2021-01-02 06:13:24
muttprofile/-2021-01-02 06:13:26
malaga/-2021-01-02 06:29:21
m17n-docs/-2021-01-02 23:42:13
minetest-mod-worldedit/-2021-01-03 00:27:32
myspell-sq/-2021-01-03 00:27:32
monafont-ttf/-2021-01-03 00:27:32
mgetty/-2021-01-03 00:29:08
megaglest-data/-2021-01-03 05:50:57
mail-expire/-2021-01-03 06:16:39
minetest-mod-maidroid/-2021-01-03 17:47:02
minetest-mod-intllib/-2021-01-03 17:47:02
mtkbabel/-2021-01-03 17:47:03
madbomber/-2021-01-03 18:04:59
minetest-mod-skyblock/-2021-01-04 00:27:11
manpages-es-extra/-2021-01-04 00:27:11
msp430mcu/-2021-01-04 00:27:13
meritous/-2021-01-04 00:29:03
madlib/-2021-01-04 01:14:11
mysqltuner/-2021-01-04 18:17:54
mail-spf-perl/-2021-01-04 18:17:54
mussh/-2021-01-04 23:41:00
mon-client/-2021-01-04 23:41:00
mono-upnp/-2021-01-04 23:41:06
messagingmenu-sharp/-2021-01-04 23:41:14
mess-desktop-entries/-2021-01-05 00:06:03
msva-perl/-2021-01-05 02:13:55
mimepull/-2021-01-05 05:39:31
mp3roaster/-2021-01-05 23:56:20
modem-cmd/-2021-01-05 23:56:20
move-text-el/-2021-01-05 23:56:24
m-buffer-el/-2021-01-07 00:26:29
mkalias/-2021-01-07 00:26:31
math-numeric-tower-clojure/-2021-01-07 00:26:31
math-combinatorics-clojure/-2021-01-07 00:26:31
mha4mysql-node/-2021-01-07 00:26:31
makepp/-2021-01-07 00:26:31
medley-clojure/-2021-01-07 00:26:32
mono-debugger-libs/-2021-01-07 00:26:35
metrics-clojure/-2021-01-07 00:26:36
mono-fuse/-2021-01-07 00:27:53
manpages-hu/-2021-01-07 06:18:08
man2html/-2021-01-07 12:17:25
mussort/-2021-01-08 00:43:02
mondrian/-2021-01-08 00:43:10
mrb/-2021-01-08 18:30:08
mha4mysql-manager/-2021-01-08 18:30:10
micropolis-activity/-2021-01-09 12:03:46
mithril/-2021-01-09 17:30:11
mini-httpd-run/-2021-01-10 17:28:56
muparserx/-2021-01-11 10:44:27
mom/-2021-01-12 05:23:59
mustache.js/-2021-01-13 17:47:55
mtree-netbsd/-2021-01-13 23:39:27
mustache-java/-2021-01-14 12:22:37
misspell-fixer/-2021-01-14 23:29:34
morse-x/-2021-01-16 05:53:53
medialibrary/-2021-01-16 06:23:40
mblaze/-2021-01-16 18:15:34
modernizr/-2021-01-16 21:24:01
mp3splt/-2021-01-17 01:38:52
mono.reflection/-2021-01-17 23:34:41
milib/-2021-01-19 17:29:37
mda-lv2/-2021-01-20 18:04:10
mopidy-tunein/-2021-01-21 12:18:30
mypager/-2021-01-24 06:14:48
mu-cite/-2021-01-25 00:14:46
makey/-2021-01-25 11:23:46
monokai-emacs/-2021-01-25 11:23:46
matrix-synapse-ldap3/-2021-01-28 00:20:42
mpdris2/-2021-01-29 00:23:50
memdump/-2021-02-01 05:48:46
mkautodoc/-2021-02-02 12:16:08
multiplex/-2021-02-03 18:17:27
maven-javadoc-plugin/-2021-02-03 23:24:28
metadata-json-lint/-2021-02-04 00:18:31
monkeysphere/-2021-02-04 15:58:46
mimetex/-2021-02-05 06:09:30
moblin-icon-theme/-2021-02-05 18:17:47
mozjs52/-2021-02-05 18:17:48
magic-wormhole/-2021-02-07 00:16:12
munipack/-2021-02-08 18:18:08
mplayer-blue/-2021-02-09 00:18:30
mp3diags/-2021-02-09 00:18:30
moka-icon-theme/-2021-02-09 12:16:26
maven-common-artifact-filters/-2021-02-09 23:24:03
maven-site-plugin/-2021-02-09 23:24:05
maven-ant-helper/-2021-02-10 17:57:03
maven-repo-helper/-2021-02-10 17:57:03
maven-debian-helper/-2021-02-12 06:15:31
maven/-2021-02-12 18:14:40
moblin-cursor-theme/-2021-02-17 18:14:43
magpierss/-2021-02-17 18:14:43
mrd6/-2021-02-17 18:14:43
mpdtoys/-2021-02-18 06:15:27
maven-reporting-exec/-2021-02-18 06:15:27
man-pages-it/-2021-02-18 18:17:05
meschach/-2021-02-19 00:17:48
myspell-sk/-2021-02-19 18:43:56
masscan/-2021-02-21 00:26:19
msitools/-2021-02-21 00:26:21
metastudent-data/-2021-02-21 06:16:14
mbr/-2021-02-22 12:35:48
mipe/-2021-02-23 06:16:51
manpages-ja/-2021-02-23 06:16:51
mcollective-server-provisioner/-2021-03-02 23:29:11
mate-window-applets/-2021-03-04 18:45:19
maven-cache-cleanup/-2021-03-05 12:17:18
mate-themes/-2021-04-01 14:14:31
moblin-sound-theme/-2021-04-10 06:15:32
monasca-statsd/-2021-04-10 18:17:32
mkdepend/-2021-04-29 06:53:55
mmm-mode/-2021-04-29 12:24:58
mythtv-status/-2021-04-29 13:07:22
mailman-suite/-2021-04-29 13:39:46
metamonger/-2021-04-29 13:39:54
mailmindr/-2021-04-29 14:29:50
mmh/-2021-04-29 15:15:10
mauve-aligner/-2021-04-29 17:30:11
minexpert2/-2021-04-30 18:29:19
migrationtools/-2021-05-02 22:33:58
mutt/-2021-05-04 18:17:05
mysql-5.5/-2021-05-04 18:17:05
mariadb-10.1/-2021-05-13 00:15:53
mialmpick/-2021-06-02 18:19:30
musescore3/-2021-06-07 12:14:16
mod-vhost-ldap/-2021-06-21 23:54:46
msktutil/-2021-06-21 23:54:47
mono/-2021-06-30 13:57:09
mstch/-2021-07-11 17:28:46
mininet/-2021-07-20 10:24:10
mailman3/-2021-07-24 12:14:38
mtools/-2021-07-25 12:14:13
magnus/-2021-08-01 06:14:49
mpi-defaults/-2021-08-04 23:33:46
munge/-2021-08-08 00:14:14
mate-common/-2021-08-23 23:24:19
mozo/-2021-08-23 23:24:37
mate-backgrounds/-2021-08-23 23:24:39
mate-user-guide/-2021-08-23 23:39:06
mate-icon-theme/-2021-08-23 23:39:06
mate-desktop-environment/-2021-08-24 00:18:52
mate-indicator-applet/-2021-08-24 00:18:56
mate-polkit/-2021-08-24 00:18:57
mate-netbook/-2021-08-24 00:18:57
mate-user-share/-2021-08-24 00:53:53
mate-terminal/-2021-08-24 00:53:53
mate-utils/-2021-08-24 01:28:44
mate-media/-2021-08-25 12:44:05
mate-notification-daemon/-2021-08-25 12:44:05
mate-sensors-applet/-2021-08-25 15:14:50
mate-applets/-2021-08-25 17:03:55
mate-menus/-2021-08-26 07:53:45
mate-dock-applet/-2021-08-31 17:08:49
mighttpd2/-2021-09-15 20:59:09
mu-cade/-2021-09-17 18:44:08
mongodb/-2021-10-06 00:14:51
metis/-2021-10-07 15:46:54
make-dfsg/-2021-10-07 15:46:55
milksnake/-2021-10-16 21:24:05
meteo-qt/-2021-10-17 22:53:43
maildirsync/-2021-10-19 04:05:39
manpages-pt/-2021-10-19 04:05:40
mailgraph/-2021-10-19 04:05:40
manpages-zh/-2021-10-19 04:05:43
mailnag/-2021-10-19 04:05:43
magit-annex/-2021-10-19 04:05:44
mgitstatus/-2021-10-19 04:05:51
metche/-2021-10-19 04:05:51
menulibre/-2021-10-19 04:05:51
metatheme-gilouche/-2021-10-19 04:05:54
minetest-mod-craftguide/-2021-10-19 04:05:55
minetest-mod-character-creator/-2021-10-19 04:05:55
minidb/-2021-10-19 04:05:56
minetest-mod-mesecons/-2021-10-19 04:05:56
minetest-mod-ethereal/-2021-10-19 04:05:56
minetest-mod-moreores/-2021-10-19 04:05:56
minetest-mod-pycraft/-2021-10-19 04:05:56
minetest-mod-moreblocks/-2021-10-19 04:05:57
modsecurity-crs/-2021-10-19 04:05:58
monitorix/-2021-10-19 04:05:58
mma/-2021-10-19 04:05:58
mm-common/-2021-10-19 04:06:00
mopidy-local/-2021-10-19 04:06:07
mwclient/-2021-10-19 04:06:08
myspell-lv/-2021-10-19 04:06:08
myspell-pt-br/-2021-10-19 04:06:08
musescore-general-soundfont-small/-2021-10-19 04:14:07
musescore-general-soundfont/-2021-10-19 04:14:18
mariadb-connector-java/-2021-10-19 13:59:09
mapdamage/-2021-10-19 13:59:09
membernator/-2021-10-19 13:59:09
mojo-executor/-2021-10-19 13:59:21
maven-scm/-2021-10-19 13:59:25
mmtf-java/-2021-10-19 14:12:59
maven-jflex-plugin/-2021-10-19 15:52:01
mathlibtools/-2021-10-19 15:52:02
macsyfinder/-2021-10-19 16:21:37
mpmath/-2021-10-19 16:21:38
mando/-2021-10-19 16:45:03
masakari-dashboard/-2021-10-19 18:59:34
magicrescue/-2021-10-21 06:56:30
mangohud/-2021-10-21 06:56:35
marsshooter/-2021-10-21 06:56:36
mathic/-2021-10-21 06:56:36
mdk3/-2021-10-21 06:56:36
mdetect/-2021-10-21 06:56:36
mdocml/-2021-10-21 06:56:37
mdk4/-2021-10-21 06:56:37
memo/-2021-10-21 07:30:48
memtailor/-2021-10-21 07:30:49
meta-kde-telepathy/-2021-10-21 07:30:49
metastore/-2021-10-21 07:30:50
mew/-2021-10-21 07:30:51
mew-beta/-2021-10-21 07:30:51
micro-httpd/-2021-10-21 07:30:51
milter-greylist/-2021-10-21 07:30:52
mimetic/-2021-10-21 07:30:53
miniasm/-2021-10-21 07:30:55
minimap/-2021-10-21 07:30:55
moon-lander/-2021-10-21 07:30:56
mp3rename/-2021-10-21 07:30:59
mosdepth/-2021-10-21 07:30:59
mrc/-2021-10-21 07:31:00
msmtp/-2021-10-21 07:31:01
mvtnorm/-2021-10-21 07:31:03
molly-brown/-2021-10-21 16:14:16
mozillavpn/-2021-10-21 16:14:17
mpi4py-fft/-2021-10-21 19:14:04
molequeue/-2021-10-21 19:49:48
magit/-2021-10-22 06:16:10
mtink/-2021-10-22 11:34:04
mystiq/-2021-10-22 11:34:04
megapixels/-2021-10-22 11:43:57
macaulay2-jupyter-kernel/-2021-10-22 12:14:01
makeself/-2021-10-22 17:30:05
mona/-2021-10-23 11:39:08
mgt/-2021-10-24 11:34:04
minder/-2021-10-25 18:16:32
mupen64plus-video-z64/-2021-10-26 13:34:45
megaglest/-2021-10-26 14:54:09
mysql-5.7/-2021-10-26 18:17:24
minetest-mod-3d-armor/-2021-10-27 00:16:05
mp3val/-2021-10-28 12:19:28
mcaller/-2021-10-29 08:43:58
multiqc/-2021-10-31 10:53:45
metaphlan2/-2021-10-31 12:18:52
metakernel/-2021-10-31 13:28:44
mckoisqldb/-2021-11-01 05:34:02
maven-jaxb2-plugin/-2021-11-01 05:34:03
mailman/-2021-11-01 11:18:24
mupen64plus-core/-2021-11-02 05:33:54
minetest-mod-nether/-2021-11-03 00:20:30
mwparserfromhell/-2021-11-06 00:18:26
maskprocessor/-2021-11-06 10:58:57
mpsolve/-2021-11-06 11:14:15
monty/-2021-11-06 12:08:56
mbdyn/-2021-11-06 17:18:57
minetest-mod-infinite-chest/-2021-11-06 17:34:18
minetest-mod-lucky-block/-2021-11-06 17:34:19
minetest-mod-mobs-redo/-2021-11-06 23:24:30
monopd/-2021-11-07 18:14:56
makefile2graph/-2021-11-07 23:44:42
matplotlib-inline/-2021-11-08 00:15:24
mysql-defaults/-2021-11-08 06:15:32
mako-notifier/-2021-11-08 06:15:32
moosefs/-2021-11-09 06:17:15
minigalaxy/-2021-11-10 05:49:33
mxml/-2021-11-10 18:10:39
matlab-support/-2021-11-10 23:30:48
metapixel/-2021-11-11 06:13:57
minia/-2021-11-12 17:48:50
mp3blaster/-2021-11-13 00:09:25
magit-forge-el/-2021-11-13 00:16:06
mediawiki-extension-codemirror/-2021-11-13 06:14:46
memlockd/-2021-11-15 06:17:40
mirtop/-2021-11-15 17:34:18
munin/-2021-11-16 17:57:07
mymake/-2021-11-17 18:59:02
mpd-sima/-2021-11-17 23:24:25
mediastreamer2/-2021-11-18 18:15:26
materialize/-2021-11-19 23:29:02
mirrorbits/-2021-11-19 23:44:06
mcstrans/-2021-11-20 10:20:32
mutt-vc-query/-2021-11-21 17:39:45
minetest-mod-throwing-arrows/-2021-11-21 23:25:08
minetest-mod-throwing/-2021-11-21 23:25:09
minetest-mod-unified-inventory/-2021-11-21 23:25:09
minetest-mod-quartz/-2021-11-21 23:45:42
mysql++/-2021-11-22 23:48:55
mdbtools/-2021-11-23 03:13:59
mktorrent/-2021-11-24 10:10:29
mini-httpd/-2021-11-24 10:10:30
moonshot-ui/-2021-11-24 10:10:37
muchsync/-2021-11-24 10:10:37
modsecurity/-2021-11-25 18:38:58
meshoptimizer/-2021-11-27 00:15:41
molmodel/-2021-11-27 04:04:02
mwrap/-2021-11-27 08:14:04
mailfilter/-2021-11-27 08:43:45
menu-l10n/-2021-11-27 23:39:06
menu-xdg/-2021-11-27 23:39:07
mpc/-2021-12-01 13:42:06
matrix-sydent/-2021-12-01 20:29:44
mina2/-2021-12-02 12:19:00
minetest-mod-pipeworks/-2021-12-03 06:17:30
minetest-mod-basic-materials/-2021-12-03 06:17:30
mednaffe/-2021-12-03 12:14:48
medusa/-2021-12-03 14:45:46
minetest-mod-currency/-2021-12-04 18:14:47
mochiweb/-2021-12-05 11:19:04
mallard-rng/-2021-12-06 03:04:04
minetest-mod-unifieddyes/-2021-12-06 06:16:06
midisnoop/-2021-12-07 10:19:35
mpl-animators/-2021-12-07 18:20:10
mpgrafic/-2021-12-07 19:19:24
mptp/-2021-12-07 19:19:24
mandelbulber2/-2021-12-07 20:49:43
mousepad/-2021-12-08 01:09:37
mupdf/-2021-12-08 06:17:27
mosh/-2021-12-08 18:16:04
muse/-2021-12-08 18:16:04
mariadb-10.5/-2021-12-08 23:55:13
mailavenger/-2021-12-09 00:15:53
mahimahi/-2021-12-09 00:15:53
megatools/-2021-12-09 02:34:28
monero/-2021-12-09 04:16:05
moonshot-trust-router/-2021-12-09 18:21:49
m17n-lib/-2021-12-09 18:21:49
mkcert/-2021-12-10 00:05:24
monitoring-plugins-systemd/-2021-12-10 05:24:24
minimac4/-2021-12-10 18:17:01
md-toc/-2021-12-11 17:39:34
metkit/-2021-12-12 06:17:31
myproxy/-2021-12-12 18:15:29
m2crypto/-2021-12-12 18:15:29
mallard-ducktype/-2021-12-13 17:24:09
muttprint/-2021-12-14 05:38:58
mate-submodules/-2021-12-14 12:17:43
macromoleculebuilder/-2021-12-14 16:59:02
mrbayes/-2021-12-14 18:16:45
multitail/-2021-12-15 06:18:08
mtpolicyd/-2021-12-15 11:34:45
mdds/-2021-12-16 00:18:09
miniupnpd/-2021-12-16 05:59:54
mariadb-10.6/-2021-12-16 18:16:10
mesaflash/-2021-12-18 00:44:05
morla/-2021-12-18 06:04:00
mindthegap/-2021-12-18 18:15:05
magic/-2021-12-21 21:13:51
mm3d/-2021-12-22 12:33:57
manila-ui/-2021-12-23 02:57:30
mailman-hyperkitty/-2021-12-23 02:57:30
murano-dashboard/-2021-12-23 02:57:30
mailmanclient/-2021-12-23 02:57:30
mplcursors/-2021-12-23 02:57:30
markupsafe/-2021-12-23 02:57:31
mariadb-connector-odbc/-2021-12-23 02:57:33
music123/-2021-12-23 02:57:40
mricron/-2021-12-23 02:57:40
mpb/-2021-12-23 02:57:40
murano-tempest-plugin/-2021-12-23 02:57:40
murasaki/-2021-12-23 02:57:40
multiprocess/-2021-12-23 02:57:40
mumble/-2021-12-23 02:57:40
murano/-2021-12-23 02:57:40
mrboom/-2021-12-23 02:57:40
musescore/-2021-12-23 02:57:40
mydumper/-2021-12-23 02:57:40
mu-editor/-2021-12-23 02:57:40
movim/-2021-12-23 02:57:40
mutagen/-2021-12-23 02:57:40
mrs/-2021-12-23 02:57:40
mstflint/-2021-12-23 02:57:40
msxpertsuite/-2021-12-23 02:57:40
mtr/-2021-12-23 02:57:40
musescore2/-2021-12-23 02:57:40
mutter/-2021-12-23 02:57:40
mpi4py/-2021-12-23 02:57:40
mypaint/-2021-12-23 02:57:40
mp3info/-2021-12-23 02:57:40
musl/-2021-12-23 02:57:40
mothur/-2021-12-23 02:57:40
mpg123/-2021-12-23 02:57:40
mysql-8.0/-2021-12-23 02:57:40
mpack/-2021-12-23 02:57:40
msort/-2021-12-23 02:57:40
mummer/-2021-12-23 02:57:40
mopidy-beets/-2021-12-23 02:57:41
morty/-2021-12-23 02:57:41
megahit/-2021-12-23 02:57:41
magnum-ui/-2021-12-23 02:57:41
mate-power-manager/-2021-12-23 02:57:41
mistral/-2021-12-23 02:57:41
maffilter/-2021-12-23 02:57:41
mikutter/-2021-12-23 02:57:41
mescc-tools/-2021-12-23 02:57:41
mgcv/-2021-12-23 02:57:41
mathomatic/-2021-12-23 02:57:41
mkgmap-splitter/-2021-12-23 02:57:41
mender-client/-2021-12-23 02:57:41
mbed-test-wrapper/-2021-12-23 02:57:41
mplayer/-2021-12-23 02:57:41
montage/-2021-12-23 02:57:41
mlpy/-2021-12-23 02:57:41
minieigen/-2021-12-23 02:57:41
microsoft-authentication-library-for-python/-2021-12-23 02:57:41
mate-optimus/-2021-12-23 02:57:41
micro/-2021-12-23 02:57:41
minitube/-2021-12-23 02:57:41
mafft/-2021-12-23 02:57:41
metamath/-2021-12-23 02:57:41
maxima/-2021-12-23 02:57:41
m2l-pyqt/-2021-12-23 02:57:41
monitoring-plugins/-2021-12-23 02:57:41
mercurial-extension-utils/-2021-12-23 02:57:41
mnormt/-2021-12-23 02:57:41
mbuffer/-2021-12-23 02:57:41
milkytracker/-2021-12-23 02:57:41
mkosi/-2021-12-23 02:57:41
mk-configure/-2021-12-23 02:57:41
moarvm/-2021-12-23 02:57:41
mfoc/-2021-12-23 02:57:41
mldonkey/-2021-12-23 02:57:41
metabat/-2021-12-23 02:57:41
minetest-mod-homedecor/-2021-12-23 02:57:41
mapproxy/-2021-12-23 02:57:41
minidlna/-2021-12-23 02:57:41
moonshot-gss-eap/-2021-12-23 02:57:41
maildir-utils/-2021-12-23 02:57:41
massxpert/-2021-12-23 02:57:41
mit-scheme/-2021-12-23 02:57:41
macs/-2021-12-23 02:57:41
mate-system-monitor/-2021-12-23 02:57:41
macopix/-2021-12-23 02:57:41
mobile-atlas-creator/-2021-12-23 02:57:41
mirage/-2021-12-23 02:57:41
memtester/-2021-12-23 02:57:41
metomi-isodatetime/-2021-12-23 02:57:41
meterec/-2021-12-23 02:57:41
mopidy/-2021-12-23 02:57:41
minica/-2021-12-23 02:57:41
mes/-2021-12-23 02:57:41
matchbox-window-manager/-2021-12-23 02:57:41
mocassin/-2021-12-23 02:57:41
microsoft-authentication-extensions-for-python/-2021-12-23 02:57:41
mitmproxy/-2021-12-23 02:57:41
mnemosyne/-2021-12-23 02:57:41
magnum-tempest-plugin/-2021-12-23 02:57:41
minizinc/-2021-12-23 02:57:41
mingw-w64/-2021-12-23 02:57:41
mini-soong/-2021-12-23 02:57:41
mockery/-2021-12-23 02:57:41
mhc/-2021-12-23 02:57:41
mergerfs/-2021-12-23 02:57:41
mate-tweak/-2021-12-23 02:57:41
mistral-tempest-plugin/-2021-12-23 02:57:41
mapsembler2/-2021-12-23 02:57:41
mat2/-2021-12-23 02:57:41
merkleeyes/-2021-12-23 02:57:41
merkaartor/-2021-12-23 02:57:41
metview-python/-2021-12-23 02:57:41
minicom/-2021-12-23 02:57:41
mksh/-2021-12-23 02:57:41
mate-calc/-2021-12-23 02:57:41
mac-robber/-2021-12-23 02:57:41
mdcfg/-2021-12-23 02:57:41
magnum/-2021-12-23 02:57:41
manuskript/-2021-12-23 02:57:41
mopidy-somafm/-2021-12-23 02:57:41
manila-tempest-plugin/-2021-12-23 02:57:41
materia-gtk-theme/-2021-12-23 02:57:41
mdevctl/-2021-12-23 02:57:41
mercurial-keyring/-2021-12-23 02:57:41
maint-guide/-2021-12-23 02:57:41
mediainfo/-2021-12-23 02:57:41
mfcuk/-2021-12-23 02:57:41
mira/-2021-12-23 02:57:41
mandos/-2021-12-23 02:57:41
mistral-dashboard/-2021-12-23 02:57:41
mate-settings-daemon/-2021-12-23 02:57:41
magics-python/-2021-12-23 02:57:41
misc3d/-2021-12-23 02:57:41
minizinc-ide/-2021-12-23 02:57:41
mender-cli/-2021-12-23 02:57:41
mmseqs2/-2021-12-23 02:57:41
mcabber/-2021-12-23 02:57:41
mednafen/-2021-12-23 02:57:41
minetest/-2021-12-23 02:57:41
matchbox-keyboard/-2021-12-23 02:57:41
metamath-databases/-2021-12-23 02:57:41
minc-tools/-2021-12-23 02:57:41
mariadb-mysql-kbs/-2021-12-23 02:57:41
manaplus/-2021-12-23 02:57:41
mate-screensaver/-2021-12-23 02:57:41
missfits/-2021-12-23 02:57:41
mc/-2021-12-23 02:57:41
monado/-2021-12-23 02:57:59
mgba/-2021-12-23 02:58:00
minimap2/-2021-12-23 02:58:00
mlt/-2021-12-23 02:58:00
msgpack-java/-2021-12-23 02:58:00
mlpost/-2021-12-23 02:58:00
mia/-2021-12-23 02:58:00
mujs/-2021-12-23 02:58:00
meanwhile/-2021-12-23 02:58:00
metacity/-2021-12-23 02:58:00
meep-openmpi/-2021-12-23 02:58:00
mir-core/-2021-12-23 02:58:00
marco/-2021-12-23 02:58:00
mlpack/-2021-12-23 02:58:00
mumps/-2021-12-23 02:58:00
maven-resolver/-2021-12-23 02:58:00
mpfi/-2021-12-23 02:58:00
ms-gsl/-2021-12-23 02:58:00
menhir/-2021-12-23 02:58:00
mariadb-10.3/-2021-12-23 02:58:00
mtdev/-2021-12-23 02:58:00
mosquitto/-2021-12-23 02:58:00
morsmall/-2021-12-23 02:58:00
mapsforge/-2021-12-23 02:58:00
md4c/-2021-12-23 02:58:00
msgpack-c/-2021-12-23 02:58:00
mongo-cxx-driver-legacy/-2021-12-23 02:58:00
meep/-2021-12-23 02:58:00
mbedtls/-2021-12-23 02:58:00
med-fichier/-2021-12-23 02:58:00
mustache-d/-2021-12-23 02:58:00
mshr/-2021-12-23 02:58:00
mcl/-2021-12-23 02:58:00
mash/-2021-12-23 02:58:00
muroar/-2021-12-23 02:58:00
magics++/-2021-12-23 02:58:00
mpfrc++/-2021-12-23 02:58:00
marisa/-2021-12-23 02:58:00
mapnik/-2021-12-23 02:58:00
mikmatch/-2021-12-23 02:58:00
mysql-ocaml/-2021-12-23 02:58:00
mpich/-2021-12-23 02:58:00
meep-mpi-default/-2021-12-23 02:58:00
mate-control-center/-2021-12-23 02:58:00
mlv/-2021-12-23 02:58:00
morbig/-2021-12-23 02:58:00
metview/-2021-12-23 02:58:00
mlgmp/-2021-12-23 02:58:02
magic-haskell/-2021-12-23 02:58:03
missingh/-2021-12-23 02:58:03
mapcache/-2021-12-23 02:58:16
modsecurity-apache/-2021-12-23 02:58:16
meta-gnome3/-2021-12-23 02:58:23
muffin/-2021-12-23 02:58:23
maliit-framework/-2021-12-23 02:58:23
malcontent/-2021-12-23 02:58:23
mate-desktop/-2021-12-23 02:58:23
mate-panel/-2021-12-23 02:58:23
modules/-2021-12-23 02:58:27
modus-themes/-2021-12-23 02:58:27
mozc/-2021-12-23 02:58:27
magit-todos/-2021-12-23 02:58:27
minimap-el/-2021-12-23 02:58:27
mate-session-manager/-2021-12-23 02:58:28
macutils/-2021-12-23 06:03:56
mecab/-2021-12-23 06:20:50
matrix-synapse/-2021-12-23 06:20:50
mrgingham/-2021-12-23 12:18:07
mountmedia/-2021-12-23 20:29:04
mpdecimal/-2021-12-23 20:29:04
mdadm/-2021-12-23 20:29:04
multipath-tools/-2021-12-23 20:29:04
mozjs68/-2021-12-23 20:29:04
mathicgb/-2021-12-24 06:18:24
mrtrix3/-2021-12-24 14:44:02
mpd/-2021-12-24 18:48:49
madplay/-2021-12-24 23:58:53
madison-lite/-2021-12-25 05:33:57
memkind/-2021-12-25 12:17:16
makepasswd/-2021-12-26 23:34:03
moreutils/-2021-12-27 06:08:49
midge/-2021-12-27 23:29:12
makepatch/-2021-12-28 05:39:15
mssql-django/-2021-12-28 06:17:57
memory-allocator/-2021-12-29 06:18:14
mkvtoolnix/-2021-12-29 12:18:47
medicalterms/-2021-12-30 17:24:46
mdk/-2021-12-31 00:18:53
meta-phosh/-2021-12-31 17:49:01
mlpcap/-2021-12-31 17:49:02
mixxx/-2022-01-01 16:08:52
micropython/-2022-01-01 23:13:49
meld/-2022-01-02 05:29:09
mediawiki2latex/-2022-01-02 06:18:52
mlucas/-2022-01-02 22:03:52
mkgmap/-2022-01-03 00:19:12
madness/-2022-01-03 02:58:56
mfgtools/-2022-01-03 12:18:06
mapivi/-2022-01-03 17:44:39
mh-book/-2022-01-03 17:44:39
minissdpd/-2022-01-03 23:49:19
maelstrom/-2022-01-04 00:19:00
markdown-it-py/-2022-01-04 06:20:19
mknfonts.tool/-2022-01-04 11:10:01
materia-kde/-2022-01-04 12:19:14
mdtraj/-2022-01-04 12:19:14
mpdcon.app/-2022-01-04 12:49:50
mhonarc/-2022-01-04 17:34:31
matplotlib/-2022-01-04 18:21:22
metadata-cleaner/-2022-01-04 18:24:13
mimeo/-2022-01-05 00:24:50
mailfromd/-2022-01-05 06:24:03
mygui/-2022-01-05 06:24:03
mtail/-2022-01-05 12:23:09
multimon-ng/-2022-01-05 18:13:56
morse/-2022-01-06 05:34:02
mmsd-tng/-2022-01-06 06:18:52
meshlab/-2022-01-06 06:34:03
multiverse-core/-2022-01-06 11:29:38
mmc-utils/-2022-01-06 18:21:59
mlton/-2022-01-07 00:25:55
mhddfs/-2022-01-07 05:29:38
mongo-c-driver/-2022-01-07 06:21:58
minetest-mod-protector/-2022-01-07 06:21:58
markdownpart/-2022-01-07 18:22:23
mrpt/-2022-01-07 18:22:23
mruby/-2022-01-07 18:22:23
minuet/-2022-01-07 18:22:23
marble/-2022-01-08 00:20:21
mailscripts/-2022-01-08 05:29:28
moment-timezone.js/-2022-01-08 05:29:30
mbox-importer/-2022-01-08 12:18:35
mpv/-2022-01-10 00:21:28
mpop/-2022-01-10 00:21:28
multcomp/-2022-01-10 00:21:28
modemmanager-qt/-2022-01-10 06:23:22
minilla/-2022-01-10 12:18:54
massivethreads/-2022-01-10 12:18:54
meta-kde/-2022-01-10 12:18:55
microbiomeutil/-2022-01-11 00:34:01
mmdebstrap/-2022-01-11 12:18:59
m16c-flash/-2022-01-11 18:43:55
mypy/-2022-01-12 00:23:50
modplugtools/-2022-01-12 06:08:54
manpages-l10n/-2022-01-12 06:20:21
meson/-2022-01-13 06:22:52
mame/-2022-01-13 12:21:35
miniupnpc/-2022-01-13 19:29:28
mercurial/-2022-01-14 02:13:56
macaulay2/-2022-01-14 04:49:01
mrtg/-2022-01-14 06:23:05
mistune/-2022-01-14 06:23:05
mcrypt/-2022-01-14 06:23:05
manila/-2022-01-14 18:19:42
mediawiki/-2022-01-14 18:19:42
mdit-py-plugins/-2022-01-14 18:19:42
masakari-monitors/-2022-01-14 18:19:42
murano-agent/-2022-01-14 18:19:42
music/-2022-01-14 19:39:05
mailutils/-2022-01-14 22:14:02
mesa/-2022-01-15 00:21:55
mysql-workbench/-2022-01-15 00:21:55
maxima-sage/-2022-01-15 04:44:01
mir/-2022-01-15 06:44:06
mapserver/-2022-01-15 13:43:53
milou/-2022-01-15 18:18:58
mathgl/-2022-01-16 00:20:10
miller/-2022-01-16 00:34:14
monit/-2022-01-16 00:34:14
mycli/-2022-01-16 06:22:06
mayavi2/-2022-01-16 09:08:56
myst-parser/-2022-01-16 11:18:58
matrix-mirage/-2022-01-16 12:21:13